[[{"header":{"parameterUnit":"m.s-1","parameterCategory":1,"la1":30.2991,"la2":30.254,"lo1":-89.0895,"lo2":-89.0444,"dy":0.0017,"dx":0.0017,"nx":28,"ny":28,"refTime":"2024-02-04T03:00:00:Z","depth":0,"parameterNumber":2,"parameterNumberName":"U-component_of_WINDS"},"data":[0,0,0,0,0,0,0,0,0,0,0,0,0,0,0,0,0,0,0,0,0,0,0,0,0,0,0,0,0,0,0,0,0,0,0,0,0,0,0,0,0,0,0,0,0,0,0,0,0,0,0,0,0,0,0,0,0,0,-0.6753,-0.6754,0,-0.6807,-0.6808,-0.6809,-0.6822,-0.6822,-0.6821,-0.6821,-0.6878,-0.688,-0.6882,0,0,0,0,0,0,0,0,0,0,0,0,0,-0.6661,-0.6663,-0.6753,-0.6754,-0.6754,-0.6807,-0.6808,-0.6809,-0.6822,-0.6822,-0.6821,-0.6821,-0.6877,-0.6879,-0.6882,0,0,0,0,0,0,0,0,0,0,0,0,0,-0.6707,-0.6663,-0.6753,-0.6767,-0.6769,-0.6807,-0.6808,-0.6809,-0.6822,-0.6822,-0.6821,-0.682,-0.6877,-0.6879,-0.6882,-0.691,0,0,-0.6891,-0.6892,0,0,0,0,0,0,0,0,-0.6704,-0.671,-0.6765,-0.6766,-0.6768,-0.6807,-0.6797,-0.6843,-0.6822,-0.6802,-0.6821,-0.682,-0.6855,-0.6859,-0.6871,-0.6913,-0.6915,-0.6891,-0.6892,-0.6894,-0.6894,0,0,0,0,0,0,0,-0.6701,-0.6708,-0.6775,-0.6765,-0.6768,-0.6771,-0.6777,-0.6805,-0.6831,-0.6804,-0.6805,-0.6811,-0.6856,-0.6868,-0.6872,-0.6916,-0.6891,-0.6893,-0.6895,-0.6896,-0.6983,-0.6984,0,0,0,0,0,0,-0.6695,-0.6705,-0.6773,-0.6776,-0.6734,-0.6773,-0.678,-0.6795,-0.6831,-0.6835,-0.6811,-0.6811,-0.6864,-0.6869,-0.6874,-0.6909,-0.6894,-0.6896,-0.6898,-0.6982,-0.6983,-0.6984,0,0,0,0,0,0,-0.6693,-0.6701,-0.6771,-0.6741,-0.675,-0.6775,-0.6793,-0.6797,-0.6809,-0.6836,-0.6841,-0.6819,-0.6863,-0.687,-0.6901,-0.6912,-0.6898,-0.69,-0.6982,-0.6983,-0.6983,-0.698,0,0,0,0,0,0,-0.669,-0.67,-0.6711,-0.6741,-0.6752,-0.6796,-0.6793,-0.6798,-0.6814,-0.6814,-0.6845,-0.685,-0.6864,-0.6897,-0.6904,-0.6915,-0.6902,-0.6981,-0.6982,-0.6983,-0.6979,-0.698,-0.6982,0,0,0,0,0,-0.6687,-0.6708,-0.6712,-0.672,-0.6766,-0.6797,-0.6803,-0.6818,-0.6814,-0.6826,-0.6843,-0.6849,-0.6909,-0.69,-0.6908,-0.692,-0.698,-0.6982,-0.6983,-0.6978,-0.698,-0.6981,0,0,0,0,0,0,-0.668,-0.6713,-0.6717,-0.6748,-0.6769,-0.6799,-0.6814,-0.6819,-0.6843,-0.6842,-0.6861,-0.6867,-0.6896,-0.6911,-0.69,-0.6949,-0.6945,-0.6948,-0.6938,-0.694,-0.6941,-0.6938,-0.6905,0,0,0,0,0,-0.6682,-0.6704,-0.6731,-0.6757,-0.6767,-0.6788,-0.6802,-0.6812,-0.6835,-0.6844,-0.6864,-0.6886,-0.691,-0.6926,-0.695,-0.6981,-0.6988,-0.6993,-0.6994,-0.6995,-0.6998,-0.7015,-0.7018,-0.6988,-0.6988,-0.6988,0,0,-0.6686,-0.6707,-0.672,-0.6756,-0.6773,-0.6796,-0.6796,-0.682,-0.6837,-0.6848,-0.6878,-0.6893,-0.6919,-0.695,-0.6964,-0.6963,-0.7008,-0.6997,-0.6998,-0.7,-0.7017,-0.702,-0.7022,-0.6989,-0.6989,-0.6989,0,0,-0.6706,-0.6724,-0.6747,-0.6764,-0.679,-0.6804,-0.6809,-0.6838,-0.6848,-0.6878,-0.6887,-0.6907,-0.6948,-0.6966,-0.6981,-0.7006,-0.7012,-0.7013,-0.702,-0.7037,-0.7039,-0.7042,-0.7051,-0.7054,-0.7016,-0.7016,-0.7016,0,-0.6709,-0.6743,-0.6758,-0.6781,-0.6796,-0.6807,-0.683,-0.6846,-0.6879,-0.6889,-0.6887,-0.6938,-0.6957,-0.6991,-0.6997,-0.7009,-0.7016,-0.701,-0.7038,-0.704,-0.7042,-0.7051,-0.7055,-0.7016,-0.7016,-0.7016,-0.7016,0,-0.6744,-0.6768,-0.6783,-0.6814,-0.6831,-0.6854,-0.6872,-0.6888,-0.6896,-0.691,-0.694,-0.6962,-0.699,-0.6999,-0.7007,-0.7035,-0.7033,-0.7034,-0.703,-0.7045,-0.7054,-0.7057,-0.7016,-0.7016,-0.7016,-0.7016,0,0,-0.6763,-0.68,-0.6806,-0.6819,-0.6849,-0.6867,-0.6891,-0.6917,-0.693,-0.6952,-0.6972,-0.7006,-0.7007,-0.7023,-0.7034,-0.7048,-0.7067,-0.7047,-0.7048,-0.705,-0.7098,-0.7098,-0.7102,-0.707,-0.7071,-0.7071,-0.7096,0,-0.6786,-0.6828,-0.6842,-0.6877,-0.6899,-0.6908,-0.6928,-0.6948,-0.6962,-0.6982,-0.6997,-0.7021,-0.702,-0.703,-0.7044,-0.7061,-0.7077,-0.7059,-0.709,-0.709,-0.7083,-0.7106,-0.7106,-0.7129,-0.71,-0.71,-0.7101,0,-0.682,-0.6842,-0.6879,-0.6905,-0.6914,-0.6932,-0.6958,-0.6977,-0.7,-0.7008,-0.7026,-0.7035,-0.706,-0.7053,-0.7088,-0.7076,-0.7089,-0.7099,-0.71,-0.7104,-0.7097,-0.7111,-0.7136,-0.714,-0.7106,-0.7106,-0.7105,0,-0.683,-0.6868,-0.6895,-0.6907,-0.6938,-0.695,-0.6963,-0.6986,-0.7,-0.7022,-0.7032,-0.7057,-0.7071,-0.709,-0.7105,-0.7099,-0.7138,-0.7133,-0.7146,-0.7146,-0.7155,-0.7154,-0.7182,-0.7162,-0.7162,-0.7162,-0.7162,0,-0.6855,-0.6877,-0.69,-0.6917,-0.6942,-0.6957,-0.6981,-0.6995,-0.7015,-0.7034,-0.7044,-0.7062,-0.7081,-0.7101,-0.7113,-0.714,-0.7146,-0.7154,-0.7157,-0.7153,-0.7152,-0.7163,-0.7162,-0.7163,-0.7163,-0.7162,-0.7162,0,-0.6871,-0.6887,-0.6917,-0.6943,-0.695,-0.6967,-0.699,-0.7006,-0.7019,-0.7044,-0.7051,-0.7072,-0.7096,-0.7113,-0.7145,-0.7153,-0.7182,-0.7184,-0.7174,-0.7176,-0.7188,-0.7187,-0.7224,-0.723,-0.7205,-0.7205,-0.7206,0,-0.6886,-0.6904,-0.6931,-0.6945,-0.6958,-0.698,-0.6995,-0.701,-0.7025,-0.7052,-0.7065,-0.709,-0.7111,-0.715,-0.7169,-0.7193,-0.7196,-0.7208,-0.72,-0.7196,-0.7197,-0.7196,-0.7198,-0.7209,-0.7209,-0.721,-0.721,0,-0.6912,-0.6919,-0.694,-0.6964,-0.6981,-0.7001,-0.702,-0.7031,-0.7049,-0.7066,-0.7091,-0.7107,-0.7139,-0.7164,-0.719,-0.7204,-0.721,-0.7212,-0.7216,-0.7213,-0.7206,-0.721,-0.7178,-0.7211,-0.7211,-0.7211,-0.7211,-0.7211,-0.6929,-0.6944,-0.6966,-0.6989,-0.7005,-0.7023,-0.704,-0.7054,-0.7075,-0.7102,-0.711,-0.7136,-0.7157,-0.7193,-0.7207,-0.7227,-0.7226,-0.7233,-0.7234,-0.7236,-0.7236,-0.7202,-0.7232,-0.7232,-0.7232,-0.7232,-0.7232,0,-0.6955,-0.6969,-0.699,-0.7017,-0.7035,-0.7038,-0.706,-0.7075,-0.7098,-0.7117,-0.7137,-0.7166,-0.7189,-0.7209,-0.7234,-0.7246,-0.725,-0.7252,-0.7252,-0.7255,-0.7235,-0.7229,-0.7249,-0.7249,-0.7249,-0.7249,-0.7249,-0.7249,-0.6971,-0.6998,-0.7007,-0.7041,-0.7055,-0.7081,-0.7093,-0.7109,-0.7125,-0.7156,-0.7175,-0.7188,-0.7207,-0.7233,-0.7255,-0.726,-0.7269,-0.7271,-0.7277,-0.7258,-0.7257,-0.7255,-0.7249,-0.7273,-0.7273,-0.7295,-0.7295,-0.7295]},{"header":{"parameterUnit":"m.s-1","parameterCategory":1,"la1":30.2991,"la2":30.254,"lo1":-89.0895,"lo2":-89.0444,"dy":0.0017,"dx":0.0017,"nx":28,"ny":28,"refTime":"2024-02-04T03:00:00:Z","depth":0,"parameterNumber":3,"parameterNumberName":"V-component_of_WINDS"},"data":[0,0,0,0,0,0,0,0,0,0,0,0,0,0,0,0,0,0,0,0,0,0,0,0,0,0,0,0,0,0,0,0,0,0,0,0,0,0,0,0,0,0,0,0,0,0,0,0,0,0,0,0,0,0,0,0,0,0,-6.707,-6.707,0,-6.7122,-6.7122,-6.7123,-6.7073,-6.7071,-6.7069,-6.7067,-6.7116,-6.7119,-6.7122,0,0,0,0,0,0,0,0,0,0,0,0,0,-6.6924,-6.6927,-6.707,-6.707,-6.7071,-6.7122,-6.7122,-6.7123,-6.7073,-6.7071,-6.7068,-6.7066,-6.7115,-6.7118,-6.7122,0,0,0,0,0,0,0,0,0,0,0,0,0,-6.6982,-6.6927,-6.707,-6.7052,-6.7051,-6.7122,-6.7123,-6.7123,-6.7074,-6.7071,-6.7068,-6.7065,-6.7113,-6.7118,-6.7123,-6.7211,0,0,-6.7137,-6.7139,0,0,0,0,0,0,0,0,-6.6979,-6.6988,-6.7054,-6.7054,-6.7053,-6.7088,-6.7089,-6.7153,-6.7075,-6.7065,-6.7067,-6.7064,-6.7108,-6.7113,-6.713,-6.7213,-6.7215,-6.7137,-6.714,-6.7142,-6.7144,0,0,0,0,0,0,0,-6.6975,-6.6985,-6.709,-6.7055,-6.7054,-6.7041,-6.7046,-6.7101,-6.7103,-6.7066,-6.7062,-6.7069,-6.7107,-6.7125,-6.713,-6.7216,-6.7137,-6.7141,-6.7144,-6.7146,-6.7377,-6.738,0,0,0,0,0,0,-6.6973,-6.6982,-6.7088,-6.7092,-6.7008,-6.7046,-6.7052,-6.708,-6.7102,-6.7103,-6.7072,-6.7067,-6.7119,-6.7125,-6.7132,-6.7239,-6.7142,-6.7147,-6.7149,-6.7374,-6.7378,-6.7381,0,0,0,0,0,0,-6.6971,-6.6983,-6.7086,-6.7036,-6.7048,-6.7052,-6.7083,-6.7082,-6.71,-6.7107,-6.7106,-6.709,-6.7116,-6.7125,-6.7193,-6.7239,-6.7149,-6.7153,-6.737,-6.7375,-6.738,-6.7452,0,0,0,0,0,0,-6.6967,-6.6983,-6.7017,-6.7037,-6.7051,-6.7148,-6.7086,-6.7085,-6.7109,-6.7103,-6.7123,-6.7124,-6.7115,-6.7186,-6.7197,-6.7244,-6.7157,-6.7366,-6.7372,-6.7378,-6.7445,-6.7459,-6.747,0,0,0,0,0,-6.6962,-6.7034,-6.7019,-6.7032,-6.7094,-6.715,-6.7158,-6.7147,-6.7113,-6.7147,-6.7152,-6.7123,-6.7232,-6.7193,-6.7205,-6.7255,-6.7363,-6.737,-6.7378,-6.744,-6.7456,-6.747,0,0,0,0,0,0,-6.7016,-6.7036,-6.702,-6.7101,-6.7125,-6.7142,-6.7184,-6.7165,-6.7197,-6.719,-6.7174,-6.7179,-6.7251,-6.7259,-6.7215,-6.7343,-6.7292,-6.7302,-6.7335,-6.735,-6.7363,-6.7359,-6.7161,0,0,0,0,0,-6.7038,-6.7083,-6.7097,-6.7167,-6.718,-6.7181,-6.7205,-6.7195,-6.7218,-6.7227,-6.7236,-6.7259,-6.7298,-6.7325,-6.7361,-6.7446,-6.7451,-6.7486,-6.7499,-6.7509,-6.7518,-6.7566,-6.7582,-6.7406,-6.7406,-6.7406,0,0,-6.7083,-6.7099,-6.7128,-6.7179,-6.7196,-6.7243,-6.7189,-6.724,-6.7274,-6.7234,-6.73,-6.7307,-6.7331,-6.7409,-6.7443,-6.7418,-6.7568,-6.7518,-6.7526,-6.753,-6.7575,-6.7592,-6.7607,-6.7411,-6.741,-6.7409,0,0,-6.7189,-6.7205,-6.7267,-6.7286,-6.7314,-6.7314,-6.7329,-6.735,-6.7354,-6.742,-6.7392,-6.7431,-6.7499,-6.7518,-6.7537,-6.7653,-6.7629,-6.7665,-6.773,-6.7777,-6.7791,-6.7803,-6.7846,-6.7861,-6.7674,-6.7674,-6.7674,0,-6.7241,-6.7311,-6.73,-6.7355,-6.7378,-6.7347,-6.7409,-6.7427,-6.7465,-6.7481,-6.7453,-6.7539,-6.7553,-6.7635,-6.7664,-6.7679,-6.7696,-6.7663,-6.779,-6.7802,-6.7813,-6.7854,-6.787,-6.7679,-6.7678,-6.7678,-6.7677,0,-6.7374,-6.7424,-6.747,-6.751,-6.7539,-6.7596,-6.7594,-6.7624,-6.7612,-6.7615,-6.7683,-6.7699,-6.7739,-6.7758,-6.7745,-6.7839,-6.7823,-6.7792,-6.7741,-6.7835,-6.7873,-6.7888,-6.7685,-6.7683,-6.7682,-6.7681,0,0,-6.7515,-6.7551,-6.7568,-6.7587,-6.7617,-6.7654,-6.7711,-6.7752,-6.7779,-6.7806,-6.7853,-6.7913,-6.7886,-6.7907,-6.7897,-6.7937,-6.8031,-6.7902,-6.7902,-6.7927,-6.8137,-6.8161,-6.8179,-6.8015,-6.8017,-6.802,-6.8135,0,-6.7624,-6.7724,-6.7718,-6.7812,-6.7858,-6.783,-6.7879,-6.7902,-6.7907,-6.7946,-6.795,-6.7994,-6.7953,-6.7967,-6.8005,-6.8011,-6.8073,-6.8002,-6.8058,-6.8061,-6.8055,-6.8198,-6.8223,-6.8332,-6.815,-6.8152,-6.8154,0,-6.7763,-6.7799,-6.7899,-6.7924,-6.7943,-6.7988,-6.8027,-6.8065,-6.809,-6.8091,-6.8116,-6.8099,-6.8156,-6.8104,-6.8182,-6.8134,-6.8157,-6.8163,-6.8167,-6.8172,-6.8114,-6.8209,-6.8366,-6.8383,-6.8177,-6.8175,-6.8174,0,-6.7858,-6.7931,-6.8001,-6.8018,-6.8048,-6.8081,-6.8094,-6.8117,-6.8144,-6.8177,-6.8194,-6.8232,-6.8254,-6.8284,-6.8278,-6.824,-6.8358,-6.8305,-6.8361,-6.8361,-6.8387,-6.8386,-6.8551,-6.84,-6.8399,-6.8399,-6.8399,0,-6.7981,-6.8044,-6.8045,-6.8088,-6.8157,-6.8148,-6.8217,-6.8227,-6.8248,-6.8292,-6.8268,-6.831,-6.8299,-6.834,-6.8336,-6.8402,-6.8411,-6.8413,-6.8412,-6.8417,-6.8417,-6.8432,-6.8424,-6.8403,-6.8403,-6.8402,-6.8401,0,-6.8099,-6.8102,-6.8177,-6.8201,-6.8208,-6.8259,-6.8278,-6.8319,-6.8322,-6.8379,-6.8391,-6.8396,-6.8443,-6.8441,-6.8493,-6.849,-6.8573,-6.8561,-6.8565,-6.8563,-6.862,-6.8616,-6.8802,-6.8826,-6.8658,-6.8659,-6.8661,0,-6.8177,-6.8226,-6.8256,-6.8285,-6.8302,-6.8349,-6.8376,-6.837,-6.8399,-6.8434,-6.847,-6.8516,-6.8552,-6.8629,-6.8637,-6.8677,-6.8667,-6.873,-6.8673,-6.8677,-6.867,-6.8668,-6.8674,-6.8741,-6.8743,-6.8745,-6.8746,0,-6.8317,-6.8317,-6.8359,-6.8403,-6.8438,-6.8471,-6.8501,-6.8525,-6.8522,-6.8556,-6.8606,-6.8634,-6.869,-6.8736,-6.8775,-6.8788,-6.8767,-6.8764,-6.8779,-6.8785,-6.8786,-6.8788,-6.8597,-6.876,-6.8758,-6.8757,-6.8756,-6.8756,-6.8419,-6.8462,-6.8491,-6.8539,-6.8562,-6.8591,-6.8632,-6.8642,-6.8684,-6.873,-6.8723,-6.8779,-6.8804,-6.8855,-6.8872,-6.8915,-6.8893,-6.8914,-6.892,-6.8926,-6.8934,-6.8779,-6.8922,-6.8921,-6.8921,-6.8921,-6.892,0,-6.8559,-6.8578,-6.8622,-6.8667,-6.8705,-6.8684,-6.8717,-6.875,-6.8801,-6.8827,-6.8865,-6.8922,-6.8967,-6.8979,-6.9023,-6.9055,-6.9047,-6.9067,-6.9065,-6.9068,-6.895,-6.8934,-6.9073,-6.9073,-6.9073,-6.9073,-6.9073,-6.9073,-6.8637,-6.8709,-6.8713,-6.8796,-6.8812,-6.8869,-6.889,-6.8918,-6.8939,-6.9006,-6.9044,-6.9053,-6.9074,-6.9119,-6.9159,-6.9161,-6.9179,-6.9203,-6.9202,-6.9091,-6.9076,-6.9062,-6.9046,-6.9207,-6.9207,-6.9317,-6.9318,-6.9318]}]]